Location: Hermaringen
(48.5952°N, 10.2585°E)
Time: 10:02:22
(UTC+00:00)

A-11 Canister half - Pass Details

Date: 20 February 2026
Orbit: 1513 x 1687 km, 47.2° (Epoch: 11 March)

Event Time Altitude Azimuth Distance (km) Brightness Sun altitude
Rises 19:40:12 0° 228° (SW) 4,932 12.0 -28.8°
Reaches altitude 10° 19:43:26 10° 224° (SW) 3,946 11.4 -29.4°
Maximum altitude 19:53:14 56° 150° (SSE) 1,939 9.1 -30.9°
Enters shadow 19:53:34 55° 143° (SE) 1,942 9.1 -30.9°
